CW8212 Weather Reports


time (UTC)temp
F
wind
direction
speed
knots
gust
knots
rain 1hr
in
rain 24hr
in
rain mn
in
humidity
%
barometer
mb
20260505121533 63 280 1.7 7.8 0.00 0.00 0.00 69 1011.9
20260505120032 61 271 0.9 4.3 0.00 0.00 0.00 70 1011.7
20260505114521 61 176 0.9 5.2 0.00 0.00 0.00 71 1011.8
20260505113015 60 106 0.9 7.0 0.00 0.00 0.00 72 1011.7
20260505111517 59 210 0.0 3.5 0.00 0.00 0.00 73 1011.4
20260505101511 59 221 0.9 3.5 0.00 0.00 0.00 73 1011.1
20260505100004 60 150 0.9 2.6 0.00 0.00 0.00 72 1011.0
20260505094504 60 195 0.9 2.6 0.00 0.00 0.00 72 1010.8
20260505093004 60 221 0.9 2.6 0.00 0.00 0.00 72 1010.7
20260505091503 60 221 0.9 2.6 0.00 0.00 0.00 72 1010.9
20260505090005 60 236 0.9 3.5 0.00 0.00 0.00 73 1010.9
20260505084502 59 205 0.9 6.1 0.00 0.00 0.00 73 1010.7
20260505083002 59 189 0.0 3.5 0.00 0.00 0.00 73 1010.9
20260505081607 59 222 0.0 0.0 0.00 0.00 0.00 73 1010.8
20260505074559 59 187 0.0 2.6 0.00 0.00 0.00 73 1010.7
20260505073127 59 210 0.0 4.3 0.00 0.00 0.00 72 1010.9
20260505071602 59 221 0.9 1.7 0.00 0.00 0.00 72 1010.9
20260505064556 59 220 0.0 2.6 0.00 0.00 0.00 71 1010.8
20260505063055 59 215 0.0 2.6 0.00 0.00 0.00 70 1010.8
20260505061554 59 202 0.9 3.5 0.00 0.00 0.00 69 1010.8
20260505060053 59 215 0.0 5.2 0.00 0.00 0.00 68 1011.0
20260505054551 60 215 0.9 2.6 0.00 0.00 0.00 67 1010.9
20260505053050 60 221 0.9 2.6 0.00 0.00 0.00 66 1011.0
20260505051601 60 215 0.9 2.6 0.00 0.00 0.00 65 1011.1
20260505041543 61 246 0.0 2.6 0.00 0.00 0.00 58 1010.9
20260505040041 61 230 0.0 1.7 0.00 0.00 0.00 56 1010.8
20260505034540 62 201 0.0 2.6 0.00 0.00 0.00 55 1010.8
20260505033040 62 213 0.0 2.6 0.00 0.00 0.00 54 1010.8
20260505031541 63 221 0.0 2.6 0.00 0.00 0.00 53 1011.0
20260505030039 63 225 0.0 2.6 0.00 0.00 0.00 53 1011.0
20260505024537 63 207 0.0 2.6 0.00 0.00 0.00 52 1011.0
20260505023038 64 220 0.0 2.6 0.00 0.00 0.00 52 1011.1
20260505021537 64 223 0.0 2.6 0.00 0.00 0.00 51 1011.2
20260505020036 65 209 0.9 2.6 0.00 0.00 0.00 50 1011.1
20260505014535 65 208 0.0 1.7 0.00 0.00 0.00 50 1011.0
20260505013050 65 224 0.9 2.6 0.00 0.00 0.00 49 1011.0
20260505011535 65 181 0.9 2.6 0.00 0.00 0.00 48 1010.9
20260505010035 66 217 0.9 3.5 0.00 0.00 0.00 48 1010.8
20260505004534 66 214 0.0 1.7 0.00 0.00 0.00 47 1010.7
20260505003034 67 224 0.0 1.7 0.00 0.00 0.00 46 1010.5
20260505001533 67 221 0.0 1.7 0.00 0.00 0.00 44 1010.4
20260505000045 68 209 0.0 1.7 0.00 0.00 0.00 43 1010.3
20260504234535 68 222 0.0 2.6 0.00 0.00 0.00 43 1010.3
20260504233031 69 221 0.0 1.7 0.00 0.00 0.00 42 1010.2
20260504231531 69 232 0.0 2.6 0.00 0.00 0.00 41 1010.2
20260504230030 70 183 0.0 4.3 0.00 0.00 0.00 41 1010.2
20260504224529 70 223 0.0 3.5 0.00 0.00 0.00 40 1010.2
20260504223030 70 236 1.7 6.1 0.00 0.00 0.00 40 1010.3
20260504221529 70 250 0.9 3.5 0.00 0.00 0.00 40 1010.3
20260504220038 70 223 0.0 4.3 0.00 0.00 0.00 40 1010.3
20260504214527 70 234 0.9 4.3 0.00 0.00 0.00 40 1010.3
20260504213027 70 273 0.0 8.7 0.00 0.00 0.00 41 1010.5
20260504211533 70 319 1.7 7.0 0.00 0.00 0.00 41 1010.6
20260504210025 70 147 0.9 4.3 0.00 0.00 0.00 41 1010.4
20260504204527 70 230 1.7 4.3 0.00 0.00 0.00 41 1010.4
20260504203027 70 229 0.0 4.3 0.00 0.00 0.00 42 1010.6
20260504201522 70 267 0.9 4.3 0.00 0.00 0.00 40 1010.7
20260504200021 70 301 0.9 3.5 0.00 0.00 0.00 40 1010.8
20260504194518 70 67 0.0 7.0 0.00 0.00 0.00 40 1010.9
20260504193023 70 231 1.7 7.0 0.00 0.00 0.00 40 1011.0
20260504191522 70 272 0.0 4.3 0.00 0.00 0.00 40 1011.1
20260504190014 69 194 0.9 6.1 0.00 0.00 0.00 40 1011.4
20260504184516 69 342 1.7 7.0 0.00 0.00 0.00 40 1011.7
20260504183008 69 336 2.6 7.8 0.00 0.00 0.00 40 1011.8
20260504181503 69 167 0.9 7.0 0.00 0.00 0.00 41 1012.2
20260504180059 69 228 1.7 6.1 0.00 0.00 0.00 41 1012.2
20260504174556 68 224 0.9 7.0 0.00 0.00 0.00 41 1012.5
20260504173056 69 292 0.9 6.1 0.00 0.00 0.00 41 1012.7
20260504171600 69 281 0.9 7.0 0.00 0.00 0.00 41 1012.8